Time,TemperatureF,DewpointF,PressureIn,WindDirection,WindDirectionDegrees,WindSpeedMPH,WindSpeedGustMPH,Humidity,HourlyPrecipIn,Conditions,Clouds,dailyrainin,SoftwareType,DateUTC
2013-05-05 00:01:00,58.0,55.4,30.02,NE,42,6.0,14.0,91,0.00,,---,0.15,VWS V14.01,2013-05-05 04:01:00,
2013-05-05 00:06:00,58.0,55.1,30.02,NE,56,12.0,17.0,90,0.00,,---,0.00,VWS V14.01,2013-05-05 04:06:00,
2013-05-05 00:11:00,58.0,55.1,30.02,NE,36,14.0,16.0,90,0.00,,---,0.00,VWS V14.01,2013-05-05 04:11:00,
2013-05-05 00:16:00,58.1,55.2,30.02,NE,44,9.0,16.0,90,0.00,,---,0.00,VWS V14.01,2013-05-05 04:16:00,
2013-05-05 00:21:00,58.0,55.1,30.02,NNE,33,15.0,17.0,90,0.00,,---,0.00,VWS V14.01,2013-05-05 04:21:00,
2013-05-05 00:26:00,57.9,55.0,30.02,NNE,32,6.0,21.0,90,0.00,,---,0.00,VWS V14.01,2013-05-05 04:26:00,
2013-05-05 00:31:00,58.0,55.1,30.02,NNE,33,6.0,11.0,90,0.00,,---,0.00,VWS V14.01,2013-05-05 04:31:00,
2013-05-05 00:36:00,58.0,55.1,30.02,NE,36,6.0,14.0,90,0.00,,---,0.00,VWS V14.01,2013-05-05 04:36:00,
2013-05-05 00:41:00,58.0,55.1,30.02,NE,50,5.0,13.0,90,0.00,,---,0.00,VWS V14.01,2013-05-05 04:41:00,
2013-05-05 00:46:00,58.0,55.1,30.02,NE,49,7.0,17.0,90,0.00,,---,0.00,VWS V14.01,2013-05-05 04:46:00,
2013-05-05 00:51:00,58.0,55.1,30.02,NE,55,7.0,17.0,90,0.00,,---,0.00,VWS V14.01,2013-05-05 04:51:00,
2013-05-05 00:56:00,58.0,55.1,30.02,NE,51,11.0,12.0,90,0.00,,---,0.00,VWS V14.01,2013-05-05 04:56:00,
2013-05-05 01:01:00,58.1,55.2,30.02,NE,50,8.0,16.0,90,0.00,,---,0.00,VWS V14.01,2013-05-05 05:01:00,
2013-05-05 01:06:00,58.1,55.2,30.02,ENE,61,9.0,10.0,90,0.00,,---,0.00,VWS V14.01,2013-05-05 05:06:00,
2013-05-05 01:11:00,58.0,55.1,30.02,ENE,59,8.0,8.0,90,0.00,,---,0.00,VWS V14.01,2013-05-05 05:11:00,
2013-05-05 01:16:00,57.8,54.9,30.02,NE,51,14.0,16.0,90,0.01,,---,0.01,VWS V14.01,2013-05-05 05:16:00,
2013-05-05 01:21:00,57.8,55.2,30.01,NNE,31,7.0,15.0,91,0.01,,---,0.01,VWS V14.01,2013-05-05 05:21:00,
2013-05-05 01:26:00,57.8,55.2,30.01,NNE,28,6.0,13.0,91,0.01,,---,0.01,VWS V14.01,2013-05-05 05:26:00,
2013-05-05 01:31:00,57.7,55.1,30.01,NE,36,3.0,15.0,91,0.02,,---,0.02,VWS V14.01,2013-05-05 05:31:00,
2013-05-05 01:36:00,57.6,55.0,30.00,NNE,26,11.0,20.0,91,0.02,,---,0.02,VWS V14.01,2013-05-05 05:36:00,
2013-05-05 01:41:00,57.6,55.0,30.00,NE,38,4.0,13.0,91,0.02,,---,0.02,VWS V14.01,2013-05-05 05:41:00,
2013-05-05 01:46:00,57.5,55.2,30.00,ENE,57,15.0,16.0,92,0.02,,---,0.02,VWS V14.01,2013-05-05 05:46:00,
2013-05-05 01:51:00,57.5,55.2,29.99,NE,42,9.0,16.0,92,0.02,,---,0.02,VWS V14.01,2013-05-05 05:51:00,
2013-05-05 01:56:00,57.5,55.2,29.99,NE,38,4.0,14.0,92,0.02,,---,0.02,VWS V14.01,2013-05-05 05:56:00,
2013-05-05 02:01:00,57.4,55.1,29.99,NE,44,14.0,14.0,92,0.02,,---,0.02,VWS V14.01,2013-05-05 06:01:00,
2013-05-05 02:06:00,57.4,55.1,29.99,NE,47,14.0,14.0,92,0.02,,---,0.02,VWS V14.01,2013-05-05 06:06:00,
2013-05-05 02:11:00,57.5,55.2,29.99,NNE,30,9.0,12.0,92,0.02,,---,0.02,VWS V14.01,2013-05-05 06:11:00,
2013-05-05 02:16:00,57.5,55.2,29.99,NE,37,8.0,12.0,92,0.01,,---,0.02,VWS V14.01,2013-05-05 06:16:00,
2013-05-05 02:21:00,57.6,55.3,29.99,NNE,28,9.0,12.0,92,0.01,,---,0.02,VWS V14.01,2013-05-05 06:21:00,
2013-05-05 02:26:00,57.6,55.3,29.99,NE,41,5.0,10.0,92,0.01,,---,0.02,VWS V14.01,2013-05-05 06:26:00,
2013-05-05 02:30:00,57.7,55.4,29.99,NNE,29,9.0,9.0,92,0.00,,---,0.02,VWS V14.01,2013-05-05 06:30:00,
2013-05-05 02:35:00,57.7,55.4,29.98,NNE,26,10.0,12.0,92,0.00,,---,0.02,VWS V14.01,2013-05-05 06:35:00,
2013-05-05 02:40:00,57.7,55.4,29.98,NE,39,5.0,9.0,92,0.00,,---,0.02,VWS V14.01,2013-05-05 06:40:00,
2013-05-05 02:45:00,57.6,55.3,29.98,NE,50,3.0,12.0,92,0.00,,---,0.02,VWS V14.01,2013-05-05 06:45:00,
2013-05-05 02:50:00,57.6,55.3,29.98,NNE,26,11.0,12.0,92,0.00,,---,0.02,VWS V14.01,2013-05-05 06:50:00,
2013-05-05 02:55:00,57.6,55.3,29.98,NE,34,13.0,13.0,92,0.01,,---,0.03,VWS V14.01,2013-05-05 06:55:00,
2013-05-05 03:00:00,57.6,55.3,29.98,NNE,28,8.0,14.0,92,0.01,,---,0.03,VWS V14.01,2013-05-05 07:00:00,
2013-05-05 03:05:00,57.7,55.7,29.97,NNE,19,10.0,12.0,93,0.01,,---,0.03,VWS V14.01,2013-05-05 07:05:00,
2013-05-05 03:10:00,57.7,55.7,29.97,NNE,20,6.0,11.0,93,0.01,,---,0.03,VWS V14.01,2013-05-05 07:10:00,
2013-05-05 03:15:00,57.6,55.6,29.97,NNE,26,11.0,12.0,93,0.01,,---,0.03,VWS V14.01,2013-05-05 07:15:00,
2013-05-05 03:20:00,57.5,55.5,29.97,NNE,25,10.0,11.0,93,0.01,,---,0.03,VWS V14.01,2013-05-05 07:20:00,
2013-05-05 03:25:00,57.4,55.4,29.97,NNE,19,6.0,10.0,93,0.01,,---,0.03,VWS V14.01,2013-05-05 07:25:00,
2013-05-05 03:30:00,57.3,55.3,29.97,North,9,10.0,13.0,93,0.01,,---,0.03,VWS V14.01,2013-05-05 07:30:00,
2013-05-05 03:35:00,57.3,55.3,29.97,NNE,15,7.0,12.0,93,0.01,,---,0.03,VWS V14.01,2013-05-05 07:35:00,
2013-05-05 03:40:00,57.3,55.3,29.97,NNE,22,7.0,12.0,93,0.01,,---,0.03,VWS V14.01,2013-05-05 07:40:00,
2013-05-05 03:45:00,57.4,55.4,29.97,NNE,19,9.0,12.0,93,0.01,,---,0.03,VWS V14.01,2013-05-05 07:45:00,
2013-05-05 03:50:00,57.3,55.3,29.96,NNE,22,7.0,11.0,93,0.01,,---,0.03,VWS V14.01,2013-05-05 07:50:00,
2013-05-05 03:55:00,57.4,55.7,29.96,NNE,23,15.0,15.0,94,0.01,,---,0.03,VWS V14.01,2013-05-05 07:55:00,
2013-05-05 04:00:00,57.4,55.7,29.96,NNE,13,12.0,12.0,94,0.00,,---,0.03,VWS V14.01,2013-05-05 08:00:00,
2013-05-05 04:05:00,57.6,55.9,29.97,NNE,21,7.0,12.0,94,0.00,,---,0.03,VWS V14.01,2013-05-05 08:05:00,
2013-05-05 04:10:00,57.9,56.2,29.97,NE,42,6.0,13.0,94,0.00,,---,0.03,VWS V14.01,2013-05-05 08:10:00,
2013-05-05 04:15:00,58.0,56.3,29.97,NE,45,7.0,13.0,94,0.00,,---,0.03,VWS V14.01,2013-05-05 08:15:00,
2013-05-05 04:20:00,58.1,56.4,29.96,NE,49,5.0,9.0,94,0.00,,---,0.03,VWS V14.01,2013-05-05 08:20:00,
2013-05-05 04:25:00,58.2,56.5,29.96,NE,45,4.0,11.0,94,0.00,,---,0.03,VWS V14.01,2013-05-05 08:25:00,
2013-05-05 04:30:00,58.2,56.5,29.96,NE,42,5.0,11.0,94,0.00,,---,0.03,VWS V14.01,2013-05-05 08:30:00,
2013-05-05 04:35:00,58.2,56.5,29.96,NE,38,10.0,14.0,94,0.00,,---,0.03,VWS V14.01,2013-05-05 08:35:00,
2013-05-05 04:40:00,58.2,56.5,29.96,NNE,20,12.0,13.0,94,0.00,,---,0.03,VWS V14.01,2013-05-05 08:40:00,
2013-05-05 04:45:00,58.2,56.5,29.96,NE,36,7.0,12.0,94,0.00,,---,0.03,VWS V14.01,2013-05-05 08:45:00,
2013-05-05 04:50:00,58.2,56.5,29.95,NE,37,12.0,14.0,94,0.00,,---,0.03,VWS V14.01,2013-05-05 08:50:00,
2013-05-05 04:55:00,58.2,56.5,29.95,NE,47,6.0,12.0,94,0.00,,---,0.03,VWS V14.01,2013-05-05 08:55:00,
2013-05-05 05:00:00,58.3,56.6,29.95,NE,42,7.0,9.0,94,0.00,,---,0.03,VWS V14.01,2013-05-05 09:00:00,
2013-05-05 05:05:00,58.4,56.7,29.96,NE,50,19.0,19.0,94,0.00,,---,0.03,VWS V14.01,2013-05-05 09:05:00,
2013-05-05 05:10:00,58.4,56.7,29.96,ENE,59,15.0,15.0,94,0.00,,---,0.03,VWS V14.01,2013-05-05 09:10:00,
2013-05-05 05:15:00,58.5,56.8,29.96,NE,54,3.0,11.0,94,0.00,,---,0.03,VWS V14.01,2013-05-05 09:15:00,
2013-05-05 05:20:00,58.6,56.9,29.96,NNE,30,7.0,13.0,94,0.00,,---,0.03,VWS V14.01,2013-05-05 09:20:00,
2013-05-05 05:25:00,58.6,56.9,29.96,NE,42,9.0,13.0,94,0.00,,---,0.03,VWS V14.01,2013-05-05 09:25:00,
2013-05-05 05:30:00,58.6,56.9,29.96,NNE,31,7.0,12.0,94,0.00,,---,0.03,VWS V14.01,2013-05-05 09:30:00,
2013-05-05 05:35:00,58.6,56.9,29.96,NNE,28,9.0,9.0,94,0.00,,---,0.03,VWS V14.01,2013-05-05 09:35:00,
2013-05-05 05:40:00,58.6,56.9,29.96,NE,47,10.0,12.0,94,0.00,,---,0.03,VWS V14.01,2013-05-05 09:40:00,
2013-05-05 05:45:00,58.6,56.9,29.96,NE,45,5.0,9.0,94,0.00,,---,0.03,VWS V14.01,2013-05-05 09:45:00,
2013-05-05 05:50:00,58.6,56.9,29.96,NE,42,8.0,20.0,94,0.00,,---,0.03,VWS V14.01,2013-05-05 09:50:00,
2013-05-05 05:55:00,58.7,57.0,29.96,NE,45,11.0,15.0,94,0.00,,---,0.03,VWS V14.01,2013-05-05 09:55:00,
2013-05-05 06:00:00,58.6,56.9,29.96,NE,49,4.0,10.0,94,0.00,,---,0.03,VWS V14.01,2013-05-05 10:00:00,
2013-05-05 06:05:00,58.6,56.9,29.97,NE,46,6.0,10.0,94,0.00,,---,0.03,VWS V14.01,2013-05-05 10:05:00,
2013-05-05 06:10:00,58.6,56.9,29.97,NE,44,6.0,12.0,94,0.00,,---,0.03,VWS V14.01,2013-05-05 10:10:00,
2013-05-05 06:15:00,58.7,57.0,29.97,NE,53,3.0,12.0,94,0.00,,---,0.03,VWS V14.01,2013-05-05 10:15:00,
2013-05-05 06:20:00,58.7,57.0,29.97,ENE,69,12.0,12.0,94,0.00,,---,0.03,VWS V14.01,2013-05-05 10:20:00,
2013-05-05 06:25:00,58.7,57.0,29.97,NE,49,6.0,15.0,94,0.00,,---,0.03,VWS V14.01,2013-05-05 10:25:00,
2013-05-05 06:30:00,58.8,57.1,29.97,NE,44,7.0,9.0,94,0.00,,---,0.03,VWS V14.01,2013-05-05 10:30:00,
2013-05-05 06:35:00,58.8,57.1,29.97,NE,36,10.0,14.0,94,0.00,,---,0.03,VWS V14.01,2013-05-05 10:35:00,
2013-05-05 06:40:00,58.9,57.2,29.97,NE,40,3.0,7.0,94,0.00,,---,0.03,VWS V14.01,2013-05-05 10:40:00,
2013-05-05 06:45:00,59.0,57.3,29.97,NE,51,4.0,7.0,94,0.00,,---,0.03,VWS V14.01,2013-05-05 10:45:00,
2013-05-05 06:50:00,58.9,57.2,29.98,NE,44,6.0,8.0,94,0.00,,---,0.03,VWS V14.01,2013-05-05 10:50:00,
2013-05-05 06:55:00,58.9,56.9,29.98,NE,46,4.0,12.0,93,0.00,,---,0.03,VWS V14.01,2013-05-05 10:55:00,
2013-05-05 07:00:00,59.0,57.3,29.98,NE,55,9.0,13.0,94,0.00,,---,0.03,VWS V14.01,2013-05-05 11:00:00,
2013-05-05 07:05:00,59.1,57.4,29.98,NE,46,12.0,12.0,94,0.00,,---,0.03,VWS V14.01,2013-05-05 11:05:00,
2013-05-05 07:10:00,59.3,57.6,29.98,NE,46,5.0,10.0,94,0.00,,---,0.03,VWS V14.01,2013-05-05 11:10:00,
2013-05-05 07:15:00,59.3,57.6,29.98,NNE,32,13.0,13.0,94,0.00,,---,0.03,VWS V14.01,2013-05-05 11:15:00,
2013-05-05 07:20:00,59.3,57.6,29.98,NE,46,10.0,13.0,94,0.00,,---,0.03,VWS V14.01,2013-05-05 11:20:00,
2013-05-05 07:25:00,59.5,57.8,29.98,NE,36,2.0,6.0,94,0.00,,---,0.03,VWS V14.01,2013-05-05 11:25:00,
2013-05-05 07:30:00,59.4,57.4,29.98,NNE,22,10.0,15.0,93,0.00,,---,0.03,VWS V14.01,2013-05-05 11:30:00,
2013-05-05 07:35:00,59.5,57.8,29.98,NE,49,7.0,10.0,94,0.00,,---,0.03,VWS V14.01,2013-05-05 11:35:00,
2013-05-05 07:40:00,59.6,57.6,29.98,NE,43,10.0,14.0,93,0.00,,---,0.03,VWS V14.01,2013-05-05 11:40:00,
2013-05-05 07:45:00,59.8,57.8,29.98,NNE,30,9.0,9.0,93,0.00,,---,0.03,VWS V14.01,2013-05-05 11:45:00,
2013-05-05 07:50:00,59.8,57.8,29.98,NNE,26,13.0,13.0,93,0.00,,---,0.03,VWS V14.01,2013-05-05 11:50:00,
2013-05-05 07:55:00,60.0,58.0,29.98,NE,40,9.0,13.0,93,0.00,,---,0.03,VWS V14.01,2013-05-05 11:55:00,
2013-05-05 08:00:00,60.1,58.1,29.98,NNE,31,12.0,13.0,93,0.00,,---,0.03,VWS V14.01,2013-05-05 12:00:00,
2013-05-05 08:05:00,60.3,58.3,29.99,NNE,26,6.0,15.0,93,0.00,,---,0.03,VWS V14.01,2013-05-05 12:05:00,
2013-05-05 08:10:00,60.4,58.4,29.99,NE,48,13.0,13.0,93,0.00,,---,0.03,VWS V14.01,2013-05-05 12:10:00,
2013-05-05 08:15:00,60.7,58.7,29.99,NE,47,10.0,14.0,93,0.00,,---,0.03,VWS V14.01,2013-05-05 12:15:00,
2013-05-05 08:20:00,60.8,58.8,29.99,NE,53,5.0,12.0,93,0.00,,---,0.03,VWS V14.01,2013-05-05 12:20:00,
2013-05-05 08:25:00,60.9,58.9,29.99,NE,46,9.0,15.0,93,0.00,,---,0.03,VWS V14.01,2013-05-05 12:25:00,
2013-05-05 08:30:00,61.1,59.1,29.99,NE,45,9.0,15.0,93,0.00,,---,0.03,VWS V14.01,2013-05-05 12:30:00,
2013-05-05 08:35:00,61.4,59.1,29.99,NE,49,6.0,13.0,92,0.00,,---,0.03,VWS V14.01,2013-05-05 12:35:00,
2013-05-05 08:40:00,61.5,59.2,29.99,NE,51,8.0,10.0,92,0.00,,---,0.03,VWS V14.01,2013-05-05 12:40:00,
2013-05-05 08:45:00,61.4,59.1,29.99,NE,37,11.0,15.0,92,0.00,,---,0.03,VWS V14.01,2013-05-05 12:45:00,
2013-05-05 08:50:00,61.6,59.3,30.00,NE,52,10.0,15.0,92,0.00,,---,0.03,VWS V14.01,2013-05-05 12:50:00,
2013-05-05 08:55:00,61.8,59.5,30.00,NE,54,11.0,12.0,92,0.00,,---,0.03,VWS V14.01,2013-05-05 12:55:00,
2013-05-05 09:00:00,62.1,59.5,30.00,ENE,67,10.0,12.0,91,0.00,,---,0.03,VWS V14.01,2013-05-05 13:00:00,
2013-05-05 09:05:00,62.3,59.6,30.00,NE,44,15.0,17.0,91,0.00,,---,0.03,VWS V14.01,2013-05-05 13:05:00,
2013-05-05 09:10:00,62.5,59.8,30.00,ENE,63,12.0,12.0,91,0.00,,---,0.03,VWS V14.01,2013-05-05 13:10:00,
2013-05-05 09:15:00,62.8,60.1,30.00,NE,40,10.0,12.0,91,0.00,,---,0.03,VWS V14.01,2013-05-05 13:15:00,
2013-05-05 09:20:00,63.3,60.3,30.00,NE,51,10.0,11.0,90,0.00,,---,0.03,VWS V14.01,2013-05-05 13:20:00,
2013-05-05 09:25:00,63.5,60.5,30.00,NNE,26,16.0,16.0,90,0.00,,---,0.03,VWS V14.01,2013-05-05 13:25:00,
2013-05-05 09:30:00,63.6,60.3,30.00,NE,34,12.0,13.0,89,0.00,,---,0.03,VWS V14.01,2013-05-05 13:30:00,
2013-05-05 09:35:00,63.9,60.9,29.99,ENE,71,11.0,11.0,90,0.00,,---,0.03,VWS V14.01,2013-05-05 13:35:00,
2013-05-05 09:40:00,64.4,61.1,29.99,NE,39,14.0,17.0,89,0.00,,---,0.03,VWS V14.01,2013-05-05 13:40:00,
2013-05-05 09:45:00,64.4,61.1,29.99,NE,40,14.0,14.0,89,0.00,,---,0.03,VWS V14.01,2013-05-05 13:45:00,
2013-05-05 09:50:00,64.5,60.9,29.99,ENE,59,10.0,14.0,88,0.00,,---,0.03,VWS V14.01,2013-05-05 13:50:00,
2013-05-05 09:55:00,64.3,60.7,29.99,NE,55,7.0,11.0,88,0.00,,---,0.03,VWS V14.01,2013-05-05 13:55:00,
2013-05-05 10:00:00,64.7,61.4,29.99,NE,55,12.0,12.0,89,0.00,,---,0.03,VWS V14.01,2013-05-05 14:00:00,
2013-05-05 10:05:00,65.1,61.5,29.99,NE,47,7.0,12.0,88,0.00,,---,0.03,VWS V14.01,2013-05-05 14:05:00,
2013-05-05 10:10:00,65.5,61.9,29.99,ENE,57,5.0,6.0,88,0.00,,---,0.03,VWS V14.01,2013-05-05 14:10:00,
2013-05-05 10:15:00,66.1,62.1,29.99,ENE,67,10.0,14.0,87,0.00,,---,0.03,VWS V14.01,2013-05-05 14:15:00,
2013-05-05 10:20:00,66.4,62.1,29.99,ENE,58,11.0,14.0,86,0.00,,---,0.03,VWS V14.01,2013-05-05 14:20:00,
2013-05-05 10:25:00,66.6,62.0,29.99,ENE,59,14.0,14.0,85,0.00,,---,0.03,VWS V14.01,2013-05-05 14:25:00,
2013-05-05 10:30:00,66.8,61.8,29.99,NE,55,11.0,11.0,84,0.00,,---,0.03,VWS V14.01,2013-05-05 14:30:00,
2013-05-05 10:35:00,67.0,62.0,29.99,ENE,57,13.0,15.0,84,0.00,,---,0.03,VWS V14.01,2013-05-05 14:35:00,
2013-05-05 10:40:00,67.2,61.9,29.99,NE,50,11.0,14.0,83,0.00,,---,0.03,VWS V14.01,2013-05-05 14:40:00,
2013-05-05 10:45:00,67.4,62.1,29.99,ENE,62,12.0,14.0,83,0.00,,---,0.03,VWS V14.01,2013-05-05 14:45:00,
2013-05-05 10:50:00,67.3,61.6,29.99,NE,53,15.0,15.0,82,0.00,,---,0.03,VWS V14.01,2013-05-05 14:50:00,
2013-05-05 10:55:00,67.2,61.5,29.99,East,80,8.0,8.0,82,0.00,,---,0.03,VWS V14.01,2013-05-05 14:55:00,
2013-05-05 11:00:00,67.4,61.7,29.99,ENE,69,11.0,15.0,82,0.00,,---,0.03,VWS V14.01,2013-05-05 15:00:00,
2013-05-05 11:05:00,67.2,61.9,30.00,ENE,69,13.0,14.0,83,0.00,,---,0.03,VWS V14.01,2013-05-05 15:05:00,
2013-05-05 11:10:00,67.5,61.8,30.00,ENE,73,13.0,18.0,82,0.00,,---,0.03,VWS V14.01,2013-05-05 15:10:00,
2013-05-05 11:15:00,67.1,61.1,30.00,East,79,14.0,18.0,81,0.00,,---,0.03,VWS V14.01,2013-05-05 15:15:00,
2013-05-05 11:20:00,66.9,61.6,30.01,ENE,57,13.0,19.0,83,0.00,,---,0.03,VWS V14.01,2013-05-05 15:20:00,
2013-05-05 11:25:00,67.5,61.8,30.01,East,86,12.0,18.0,82,0.00,,---,0.03,VWS V14.01,2013-05-05 15:25:00,
2013-05-05 11:30:00,67.8,62.1,30.01,East,90,10.0,17.0,82,0.00,,---,0.03,VWS V14.01,2013-05-05 15:30:00,
2013-05-05 11:35:00,68.0,62.0,30.00,ENE,75,13.0,21.0,81,0.00,,---,0.03,VWS V14.01,2013-05-05 15:35:00,
2013-05-05 11:40:00,67.9,61.9,30.00,ENE,65,13.0,13.0,81,0.00,,---,0.03,VWS V14.01,2013-05-05 15:40:00,
2013-05-05 11:45:00,67.1,61.1,30.00,ENE,59,14.0,21.0,81,0.00,,---,0.03,VWS V14.01,2013-05-05 15:45:00,
2013-05-05 11:50:00,67.0,61.3,29.99,ENE,64,13.0,22.0,82,0.00,,---,0.03,VWS V14.01,2013-05-05 15:50:00,
2013-05-05 11:55:00,67.2,61.9,29.99,NE,56,10.0,21.0,83,0.00,,---,0.03,VWS V14.01,2013-05-05 15:55:00,
2013-05-05 12:00:00,67.2,62.2,29.99,NE,48,12.0,21.0,84,0.00,,---,0.03,VWS V14.01,2013-05-05 16:00:00,
2013-05-05 12:05:00,67.0,62.0,29.99,ENE,59,11.0,20.0,84,0.00,,---,0.03,VWS V14.01,2013-05-05 16:05:00,
2013-05-05 12:10:00,67.0,62.0,29.99,ENE,74,11.0,19.0,84,0.00,,---,0.03,VWS V14.01,2013-05-05 16:10:00,
2013-05-05 12:15:00,67.3,62.0,29.99,ENE,75,14.0,18.0,83,0.00,,---,0.03,VWS V14.01,2013-05-05 16:15:00,
2013-05-05 12:20:00,67.5,62.2,30.00,East,82,7.0,17.0,83,0.00,,---,0.03,VWS V14.01,2013-05-05 16:20:00,
2013-05-05 12:25:00,67.6,62.3,30.00,ENE,74,6.0,16.0,83,0.00,,---,0.03,VWS V14.01,2013-05-05 16:25:00,
2013-05-05 12:30:00,67.3,62.0,30.00,ENE,61,7.0,16.0,83,0.00,,---,0.03,VWS V14.01,2013-05-05 16:30:00,
2013-05-05 12:35:00,67.4,62.4,29.99,East,80,17.0,17.0,84,0.00,,---,0.03,VWS V14.01,2013-05-05 16:35:00,
2013-05-05 12:40:00,68.0,62.7,29.99,ENE,71,11.0,17.0,83,0.00,,---,0.03,VWS V14.01,2013-05-05 16:40:00,
2013-05-05 12:45:00,68.5,62.5,29.99,East,81,7.0,19.0,81,0.00,,---,0.03,VWS V14.01,2013-05-05 16:45:00,
2013-05-05 12:50:00,68.9,62.5,29.99,East,83,14.0,18.0,80,0.00,,---,0.03,VWS V14.01,2013-05-05 16:50:00,
2013-05-05 12:55:00,69.1,62.7,29.99,ENE,70,11.0,17.0,80,0.00,,---,0.03,VWS V14.01,2013-05-05 16:55:00,
2013-05-05 13:00:00,69.3,62.5,29.99,ENE,62,14.0,18.0,79,0.00,,---,0.03,VWS V14.01,2013-05-05 17:00:00,
2013-05-05 13:05:00,68.9,62.1,29.99,ENE,62,13.0,20.0,79,0.00,,---,0.03,VWS V14.01,2013-05-05 17:05:00,
2013-05-05 13:09:00,68.9,62.1,29.99,East,80,11.0,18.0,79,0.00,,---,0.03,VWS V14.01,2013-05-05 17:09:00,
2013-05-05 13:14:00,68.7,61.9,29.99,East,101,16.0,16.0,79,0.00,,---,0.03,VWS V14.01,2013-05-05 17:14:00,
2013-05-05 13:19:00,69.1,62.3,29.99,ENE,72,14.0,18.0,79,0.00,,---,0.03,VWS V14.01,2013-05-05 17:19:00,
2013-05-05 13:24:00,69.7,62.5,29.99,NE,53,14.0,16.0,78,0.00,,---,0.03,VWS V14.01,2013-05-05 17:24:00,
2013-05-05 13:29:00,69.5,62.0,29.99,ENE,67,12.0,16.0,77,0.00,,---,0.03,VWS V14.01,2013-05-05 17:29:00,
2013-05-05 13:34:00,68.8,61.3,29.99,ENE,78,12.0,19.0,77,0.00,,---,0.03,VWS V14.01,2013-05-05 17:34:00,
2013-05-05 13:39:00,68.3,61.2,29.99,East,80,12.0,18.0,78,0.00,,---,0.03,VWS V14.01,2013-05-05 17:39:00,
2013-05-05 13:44:00,67.5,61.1,29.99,East,80,11.0,16.0,80,0.00,,---,0.03,VWS V14.01,2013-05-05 17:44:00,
2013-05-05 13:49:00,66.9,61.2,29.99,East,82,10.0,16.0,82,0.00,,---,0.03,VWS V14.01,2013-05-05 17:49:00,
2013-05-05 13:54:00,67.6,62.3,29.99,ENE,76,15.0,15.0,83,0.00,,---,0.03,VWS V14.01,2013-05-05 17:54:00,
2013-05-05 13:59:00,68.2,62.5,29.99,ENE,78,11.0,16.0,82,0.00,,---,0.03,VWS V14.01,2013-05-05 17:59:00,
2013-05-05 14:04:00,69.1,62.7,29.99,East,101,12.0,18.0,80,0.00,,---,0.03,VWS V14.01,2013-05-05 18:04:00,
2013-05-05 14:09:00,69.4,62.6,29.99,ENE,65,17.0,18.0,79,0.00,,---,0.03,VWS V14.01,2013-05-05 18:09:00,
2013-05-05 14:14:00,69.3,62.2,29.99,East,87,13.0,19.0,78,0.00,,---,0.03,VWS V14.01,2013-05-05 18:14:00,
2013-05-05 14:19:00,69.5,62.0,29.99,East,89,11.0,17.0,77,0.00,,---,0.03,VWS V14.01,2013-05-05 18:19:00,
2013-05-05 14:24:00,69.5,62.3,29.99,East,96,13.0,18.0,78,0.00,,---,0.03,VWS V14.01,2013-05-05 18:24:00,
2013-05-05 14:29:00,69.7,62.2,29.99,ENE,71,7.0,14.0,77,0.00,,---,0.03,VWS V14.01,2013-05-05 18:29:00,
2013-05-05 14:34:00,69.9,62.4,29.99,East,85,6.0,15.0,77,0.00,,---,0.03,VWS V14.01,2013-05-05 18:34:00,
2013-05-05 14:39:00,69.3,61.8,29.99,East,94,13.0,17.0,77,0.00,,---,0.03,VWS V14.01,2013-05-05 18:39:00,
2013-05-05 14:44:00,69.2,62.1,29.99,East,89,3.0,16.0,78,0.00,,---,0.03,VWS V14.01,2013-05-05 18:44:00,
2013-05-05 14:49:00,69.4,61.9,29.98,East,79,7.0,17.0,77,0.00,,---,0.03,VWS V14.01,2013-05-05 18:49:00,
2013-05-05 14:54:00,69.2,62.1,29.98,ENE,72,12.0,18.0,78,0.00,,---,0.03,VWS V14.01,2013-05-05 18:54:00,
2013-05-05 14:59:00,69.0,61.5,29.98,East,84,12.0,18.0,77,0.00,,---,0.03,VWS V14.01,2013-05-05 18:59:00,
2013-05-05 15:04:00,69.2,62.1,29.98,East,93,12.0,12.0,78,0.00,,---,0.03,VWS V14.01,2013-05-05 19:04:00,
2013-05-05 15:09:00,69.0,61.9,29.98,ENE,75,14.0,17.0,78,0.00,,---,0.03,VWS V14.01,2013-05-05 19:09:00,
2013-05-05 15:14:00,69.0,61.5,29.98,East,81,8.0,15.0,77,0.00,,---,0.03,VWS V14.01,2013-05-05 19:14:00,
2013-05-05 15:19:00,68.6,61.5,29.99,ESE,102,14.0,18.0,78,0.00,,---,0.03,VWS V14.01,2013-05-05 19:19:00,
2013-05-05 15:24:00,68.4,61.3,29.99,East,84,7.0,15.0,78,0.00,,---,0.03,VWS V14.01,2013-05-05 19:24:00,
2013-05-05 15:29:00,68.1,61.3,29.99,East,101,9.0,15.0,79,0.00,,---,0.03,VWS V14.01,2013-05-05 19:29:00,
2013-05-05 15:34:00,67.5,61.1,29.98,East,84,7.0,14.0,80,0.00,,---,0.03,VWS V14.01,2013-05-05 19:34:00,
2013-05-05 15:39:00,67.6,61.6,29.98,ENE,65,9.0,12.0,81,0.00,,---,0.03,VWS V14.01,2013-05-05 19:39:00,
2013-05-05 15:44:00,67.9,61.9,29.98,ENE,58,10.0,14.0,81,0.00,,---,0.03,VWS V14.01,2013-05-05 19:44:00,
2013-05-05 15:49:00,68.3,61.9,29.98,East,88,9.0,14.0,80,0.00,,---,0.03,VWS V14.01,2013-05-05 19:49:00,
2013-05-05 15:54:00,68.6,61.8,29.98,East,86,9.0,11.0,79,0.00,,---,0.03,VWS V14.01,2013-05-05 19:54:00,
2013-05-05 15:59:00,68.8,61.7,29.98,ENE,78,8.0,11.0,78,0.00,,---,0.03,VWS V14.01,2013-05-05 19:59:00,
2013-05-05 16:04:00,68.8,61.3,29.98,East,94,11.0,14.0,77,0.00,,---,0.03,VWS V14.01,2013-05-05 20:04:00,
2013-05-05 16:09:00,68.9,61.8,29.98,ENE,78,11.0,14.0,78,0.00,,---,0.03,VWS V14.01,2013-05-05 20:09:00,
2013-05-05 16:14:00,69.2,61.7,29.98,ENE,78,11.0,14.0,77,0.00,,---,0.03,VWS V14.01,2013-05-05 20:14:00,
2013-05-05 16:19:00,68.9,61.4,29.98,East,88,10.0,13.0,77,0.00,,---,0.03,VWS V14.01,2013-05-05 20:19:00,
2013-05-05 16:24:00,68.8,60.9,29.98,East,94,8.0,14.0,76,0.00,,---,0.03,VWS V14.01,2013-05-05 20:24:00,
2013-05-05 16:29:00,68.8,61.3,29.98,ENE,76,11.0,14.0,77,0.00,,---,0.03,VWS V14.01,2013-05-05 20:29:00,
2013-05-05 16:34:00,69.1,61.6,29.98,East,95,11.0,13.0,77,0.00,,---,0.03,VWS V14.01,2013-05-05 20:34:00,
2013-05-05 16:39:00,68.6,60.7,29.98,East,87,16.0,19.0,76,0.00,,---,0.03,VWS V14.01,2013-05-05 20:39:00,
2013-05-05 16:44:00,68.0,60.9,29.98,East,94,10.0,18.0,78,0.00,,---,0.03,VWS V14.01,2013-05-05 20:44:00,
2013-05-05 16:49:00,67.4,61.4,29.97,East,91,14.0,16.0,81,0.00,,---,0.03,VWS V14.01,2013-05-05 20:49:00,
2013-05-05 16:54:00,67.4,61.0,29.97,East,84,11.0,13.0,80,0.00,,---,0.03,VWS V14.01,2013-05-05 20:54:00,
2013-05-05 16:59:00,67.6,61.2,29.97,East,81,8.0,13.0,80,0.00,,---,0.03,VWS V14.01,2013-05-05 20:59:00,
2013-05-05 17:04:00,67.5,61.1,29.97,ENE,72,10.0,14.0,80,0.00,,---,0.03,VWS V14.01,2013-05-05 21:04:00,
2013-05-05 17:09:00,67.4,61.4,29.97,East,85,11.0,12.0,81,0.00,,---,0.03,VWS V14.01,2013-05-05 21:09:00,
2013-05-05 17:14:00,67.3,61.3,29.97,ENE,63,10.0,13.0,81,0.00,,---,0.03,VWS V14.01,2013-05-05 21:14:00,
2013-05-05 17:19:00,67.5,61.1,29.97,ENE,68,8.0,11.0,80,0.00,,---,0.03,VWS V14.01,2013-05-05 21:19:00,
2013-05-05 17:24:00,67.4,61.0,29.97,ENE,74,13.0,14.0,80,0.00,,---,0.03,VWS V14.01,2013-05-05 21:24:00,
2013-05-05 17:29:00,67.1,61.1,29.97,East,80,11.0,13.0,81,0.00,,---,0.03,VWS V14.01,2013-05-05 21:29:00,
2013-05-05 17:34:00,66.5,60.8,29.97,East,79,13.0,15.0,82,0.00,,---,0.03,VWS V14.01,2013-05-05 21:34:00,
2013-05-05 17:39:00,66.1,60.8,29.97,ENE,71,13.0,15.0,83,0.00,,---,0.03,VWS V14.01,2013-05-05 21:39:00,
2013-05-05 17:44:00,65.9,60.9,29.97,ENE,66,7.0,15.0,84,0.00,,---,0.03,VWS V14.01,2013-05-05 21:44:00,
2013-05-05 17:49:00,65.6,60.6,29.97,ENE,64,13.0,15.0,84,0.00,,---,0.03,VWS V14.01,2013-05-05 21:49:00,
2013-05-05 17:54:00,65.7,61.1,29.97,ENE,65,10.0,14.0,85,0.00,,---,0.03,VWS V14.01,2013-05-05 21:54:00,
2013-05-05 17:59:00,65.5,60.9,29.97,ENE,62,12.0,18.0,85,0.00,,---,0.03,VWS V14.01,2013-05-05 21:59:00,
2013-05-05 18:04:00,65.4,60.8,29.97,ENE,74,6.0,19.0,85,0.00,,---,0.03,VWS V14.01,2013-05-05 22:04:00,
2013-05-05 18:09:00,65.3,60.7,29.97,ENE,73,15.0,17.0,85,0.00,,---,0.03,VWS V14.01,2013-05-05 22:09:00,
2013-05-05 18:14:00,65.3,60.7,29.97,ENE,75,10.0,16.0,85,0.00,,---,0.03,VWS V14.01,2013-05-05 22:14:00,
2013-05-05 18:19:00,65.2,60.6,29.96,East,82,16.0,19.0,85,0.00,,---,0.03,VWS V14.01,2013-05-05 22:19:00,
2013-05-05 18:24:00,65.0,60.4,29.96,East,79,9.0,18.0,85,0.00,,---,0.03,VWS V14.01,2013-05-05 22:24:00,
2013-05-05 18:29:00,64.9,60.3,29.96,ENE,76,13.0,16.0,85,0.00,,---,0.03,VWS V14.01,2013-05-05 22:29:00,
2013-05-05 18:34:00,64.7,60.1,29.96,ENE,73,13.0,19.0,85,0.00,,---,0.03,VWS V14.01,2013-05-05 22:34:00,
2013-05-05 18:39:00,64.7,60.4,29.96,ENE,62,17.0,19.0,86,0.00,,---,0.03,VWS V14.01,2013-05-05 22:39:00,
2013-05-05 18:44:00,64.7,60.4,29.96,ENE,67,13.0,17.0,86,0.00,,---,0.03,VWS V14.01,2013-05-05 22:44:00,
2013-05-05 18:49:00,64.5,60.2,29.95,ENE,68,13.0,17.0,86,0.00,,---,0.03,VWS V14.01,2013-05-05 22:49:00,
2013-05-05 18:54:00,64.3,60.3,29.95,ENE,66,13.0,18.0,87,0.00,,---,0.03,VWS V14.01,2013-05-05 22:54:00,
2013-05-05 18:59:00,64.2,60.3,29.95,East,83,10.0,20.0,87,0.00,,---,0.03,VWS V14.01,2013-05-05 22:59:00,
2013-05-05 19:04:00,64.2,60.6,29.96,ENE,57,7.0,15.0,88,0.00,,---,0.03,VWS V14.01,2013-05-05 23:04:00,
2013-05-05 19:09:00,64.2,60.6,29.96,ENE,71,15.0,16.0,88,0.00,,---,0.03,VWS V14.01,2013-05-05 23:09:00,
2013-05-05 19:14:00,64.0,60.4,29.96,ENE,67,14.0,20.0,88,0.00,,---,0.03,VWS V14.01,2013-05-05 23:14:00,
2013-05-05 19:19:00,63.9,60.3,29.96,ENE,63,8.0,17.0,88,0.00,,---,0.03,VWS V14.01,2013-05-05 23:19:00,
2013-05-05 19:24:00,63.8,60.2,29.96,ENE,59,11.0,19.0,88,0.00,,---,0.03,VWS V14.01,2013-05-05 23:24:00,
2013-05-05 19:29:00,63.7,60.1,29.96,ENE,67,13.0,18.0,88,0.00,,---,0.03,VWS V14.01,2013-05-05 23:29:00,
2013-05-05 19:34:00,63.8,60.2,29.97,ENE,72,10.0,15.0,88,0.00,,---,0.03,VWS V14.01,2013-05-05 23:34:00,
2013-05-05 19:39:00,63.8,60.2,29.97,NE,56,17.0,18.0,88,0.00,,---,0.03,VWS V14.01,2013-05-05 23:39:00,
2013-05-05 19:44:00,63.8,60.2,29.97,ENE,59,14.0,19.0,88,0.00,,---,0.03,VWS V14.01,2013-05-05 23:44:00,
2013-05-05 19:49:00,63.9,60.3,29.98,ENE,60,11.0,13.0,88,0.00,,---,0.03,VWS V14.01,2013-05-05 23:49:00,
2013-05-05 19:54:00,63.9,60.3,29.98,NE,54,9.0,15.0,88,0.00,,---,0.03,VWS V14.01,2013-05-05 23:54:00,
2013-05-05 19:59:00,63.8,60.2,29.98,ENE,65,13.0,15.0,88,0.00,,---,0.03,VWS V14.01,2013-05-05 23:59:00,
2013-05-05 20:04:00,63.8,60.2,29.98,ENE,68,6.0,17.0,88,0.00,,---,0.03,VWS V14.01,2013-05-06 00:04:00,
2013-05-05 20:09:00,63.8,60.2,29.98,ENE,57,11.0,15.0,88,0.00,,---,0.03,VWS V14.01,2013-05-06 00:09:00,
2013-05-05 20:14:00,63.7,60.1,29.98,ENE,61,12.0,15.0,88,0.00,,---,0.03,VWS V14.01,2013-05-06 00:14:00,
2013-05-05 20:19:00,63.6,60.0,29.98,ENE,64,6.0,14.0,88,0.00,,---,0.03,VWS V14.01,2013-05-06 00:19:00,
2013-05-05 20:24:00,63.6,60.3,29.98,ENE,68,11.0,16.0,89,0.00,,---,0.03,VWS V14.01,2013-05-06 00:24:00,
2013-05-05 20:29:00,63.5,60.2,29.98,ENE,60,10.0,12.0,89,0.00,,---,0.03,VWS V14.01,2013-05-06 00:29:00,
2013-05-05 20:34:00,63.4,60.1,29.98,ENE,60,9.0,13.0,89,0.00,,---,0.03,VWS V14.01,2013-05-06 00:34:00,
2013-05-05 20:39:00,63.4,60.1,29.98,ENE,62,13.0,13.0,89,0.00,,---,0.03,VWS V14.01,2013-05-06 00:39:00,
2013-05-05 20:44:00,63.2,59.9,29.98,ENE,78,9.0,14.0,89,0.00,,---,0.03,VWS V14.01,2013-05-06 00:44:00,
2013-05-05 20:49:00,63.2,59.9,29.98,ENE,64,7.0,12.0,89,0.00,,---,0.03,VWS V14.01,2013-05-06 00:49:00,
2013-05-05 20:54:00,63.1,59.8,29.98,ENE,61,10.0,13.0,89,0.00,,---,0.03,VWS V14.01,2013-05-06 00:54:00,
2013-05-05 20:59:00,63.1,60.1,29.98,ENE,65,13.0,13.0,90,0.00,,---,0.03,VWS V14.01,2013-05-06 00:59:00,
2013-05-05 21:04:00,63.1,60.1,29.97,ENE,69,9.0,13.0,90,0.00,,---,0.03,VWS V14.01,2013-05-06 01:04:00,
2013-05-05 21:09:00,63.1,60.1,29.97,ENE,67,9.0,13.0,90,0.00,,---,0.03,VWS V14.01,2013-05-06 01:09:00,
2013-05-05 21:14:00,63.1,60.1,29.97,ENE,59,13.0,17.0,90,0.00,,---,0.03,VWS V14.01,2013-05-06 01:14:00,
2013-05-05 21:19:00,63.1,60.1,29.98,ENE,67,9.0,13.0,90,0.00,,---,0.03,VWS V14.01,2013-05-06 01:19:00,
2013-05-05 21:24:00,63.0,60.0,29.98,ENE,60,11.0,14.0,90,0.00,,---,0.03,VWS V14.01,2013-05-06 01:24:00,
2013-05-05 21:29:00,63.0,60.0,29.98,ENE,67,9.0,15.0,90,0.00,,---,0.03,VWS V14.01,2013-05-06 01:29:00,
2013-05-05 21:34:00,63.0,60.0,29.97,ENE,70,6.0,14.0,90,0.00,,---,0.03,VWS V14.01,2013-05-06 01:34:00,
2013-05-05 21:39:00,63.0,60.0,29.97,ENE,70,10.0,14.0,90,0.00,,---,0.03,VWS V14.01,2013-05-06 01:39:00,
2013-05-05 21:44:00,63.1,60.1,29.97,ENE,61,9.0,13.0,90,0.00,,---,0.03,VWS V14.01,2013-05-06 01:44:00,
2013-05-05 21:49:00,63.1,60.1,29.97,ENE,61,10.0,14.0,90,0.00,,---,0.03,VWS V14.01,2013-05-06 01:49:00,
2013-05-05 21:54:00,63.1,60.1,29.97,ENE,65,4.0,12.0,90,0.00,,---,0.03,VWS V14.01,2013-05-06 01:54:00,
2013-05-05 21:59:00,63.1,60.1,29.97,ENE,76,5.0,12.0,90,0.00,,---,0.03,VWS V14.01,2013-05-06 01:59:00,
2013-05-05 22:04:00,63.1,60.1,29.98,ENE,66,7.0,12.0,90,0.00,,---,0.03,VWS V14.01,2013-05-06 02:04:00,
2013-05-05 22:09:00,63.1,60.1,29.98,ENE,67,8.0,12.0,90,0.00,,---,0.03,VWS V14.01,2013-05-06 02:09:00,
2013-05-05 22:14:00,63.0,60.0,29.98,ENE,66,10.0,11.0,90,0.00,,---,0.03,VWS V14.01,2013-05-06 02:14:00,
2013-05-05 22:19:00,63.0,60.0,29.98,ENE,60,10.0,13.0,90,0.00,,---,0.03,VWS V14.01,2013-05-06 02:19:00,
2013-05-05 22:24:00,63.0,60.0,29.98,ENE,68,7.0,11.0,90,0.00,,---,0.03,VWS V14.01,2013-05-06 02:24:00,
2013-05-05 22:29:00,62.9,59.9,29.98,ENE,61,6.0,11.0,90,0.00,,---,0.03,VWS V14.01,2013-05-06 02:29:00,
2013-05-05 22:34:00,62.9,59.9,29.98,ENE,62,9.0,10.0,90,0.00,,---,0.03,VWS V14.01,2013-05-06 02:34:00,
2013-05-05 22:39:00,62.9,59.9,29.98,NE,55,5.0,10.0,90,0.00,,---,0.03,VWS V14.01,2013-05-06 02:39:00,
2013-05-05 22:44:00,62.9,59.9,29.98,ENE,58,6.0,9.0,90,0.00,,---,0.03,VWS V14.01,2013-05-06 02:44:00,
2013-05-05 22:49:00,62.9,59.9,29.97,ENE,59,5.0,9.0,90,0.00,,---,0.03,VWS V14.01,2013-05-06 02:49:00,
2013-05-05 22:54:00,62.9,59.9,29.97,ENE,60,5.0,10.0,90,0.00,,---,0.03,VWS V14.01,2013-05-06 02:54:00,
2013-05-05 22:59:00,62.9,59.9,29.97,NE,55,5.0,9.0,90,0.00,,---,0.03,VWS V14.01,2013-05-06 02:59:00,
2013-05-05 23:04:00,62.9,59.9,29.97,ENE,59,5.0,7.0,90,0.00,,---,0.03,VWS V14.01,2013-05-06 03:04:00,
2013-05-05 23:09:00,62.9,59.9,29.97,ENE,58,7.0,7.0,90,0.00,,---,0.03,VWS V14.01,2013-05-06 03:09:00,
2013-05-05 23:14:00,62.9,59.9,29.97,ENE,63,5.0,9.0,90,0.00,,---,0.03,VWS V14.01,2013-05-06 03:14:00,
2013-05-05 23:19:00,62.8,59.8,29.97,ENE,64,6.0,9.0,90,0.00,,---,0.03,VWS V14.01,2013-05-06 03:19:00,
2013-05-05 23:24:00,62.9,59.9,29.97,ENE,62,5.0,7.0,90,0.00,,---,0.03,VWS V14.01,2013-05-06 03:24:00,
2013-05-05 23:29:00,62.9,59.9,29.97,ENE,59,4.0,7.0,90,0.00,,---,0.03,VWS V14.01,2013-05-06 03:29:00,
2013-05-05 23:34:00,62.8,59.8,29.97,NE,55,4.0,9.0,90,0.00,,---,0.03,VWS V14.01,2013-05-06 03:34:00,
2013-05-05 23:39:00,62.7,59.7,29.97,NE,53,4.0,7.0,90,0.00,,---,0.03,VWS V14.01,2013-05-06 03:39:00,
2013-05-05 23:44:00,62.6,59.6,29.97,NE,55,5.0,7.0,90,0.00,,---,0.03,VWS V14.01,2013-05-06 03:44:00,
2013-05-05 23:49:00,62.7,60.0,29.97,NE,56,3.0,7.0,91,0.00,,---,0.03,VWS V14.01,2013-05-06 03:49:00,
2013-05-05 23:54:00,62.6,59.9,29.97,NE,56,4.0,5.0,91,0.00,,---,0.03,VWS V14.01,2013-05-06 03:54:00,
2013-05-05 23:59:00,62.6,59.6,29.97,NE,55,2.0,5.0,90,0.00,,---,0.03,VWS V14.01,2013-05-06 03:59:00,